Tracking 20232 objects as of 21-Jan-2020
HD Live streaming from Space Station
objects crossing your sky now

COSMOS 830

Track COSMOS 830 now!
10-day predictions
COSMOS 830 is classified as:


NORAD ID: 8894
Int'l Code: 1976-054F
Perigee: 1,474.7 km
Apogee: 1,500.3 km
Inclination: 74.0 °
Period: 115.5 minutes
Semi major axis: 7858 km
RCS: 0.7027 m2 (medium)
Launch date: June 15, 1976
Source: Commonwealth of Independent States (former USSR) (CIS)
Launch site: PLESETSK MISSILE AND SPACE COMPLEX (PKMTR)
aabbcc
Your satellite tracking list
Your tracking list is empty




NASA's NSSDC Master Catalog

Two Line Element Set (TLE):
1  8894U 76054F   20020.90972352 -.00000014 +00000-0 +95715-5 0  9990
2  8894 074.0016 306.3284 0016281 207.5810 214.2973 12.46220803983440
Source of the keplerian elements: AFSPC